Temperature
21 21 21 21 18 16 17 18 18 18 18 18 18 17 17 16 17 17 17 17 17 17 17 17 17 17 17 17 17 17 17 17 17 17 17 17 17 17 17 17 17 17 17 17 17 17 17 17 17
21 21 21 20 16 16 17 18 18 18 18 18 18 17 17 16 16 17 17 17 17 17 17 17 17 17 17 17 17 17 17 17 17 17 17 17 17 17 17 17 17 17 17 17 17 17 17 17 17
21 21 21 16 16 16 18 18 17 18 18 18 17 17 17 17 17 17 17 17 17 17 17 17 17 17 17 17 17 17 17 17 17 17 17 17 17 17 17 17 17 17 17 17 17 17 17 17 17
21 21 20 16 17 17 17 18 18 18 18 18 17 17 17 17 17 17 17 17 17 17 17 17 17 17 17 17 17 17 17 17 17 17 17 17 17 17 17 17 17 16 16 16 16 16 16 16 16
21 21 17 16 17 17 17 18 18 18 18 17 17 16 16 17 17 17 17 17 17 17 17 17 17 17 17 17 17 16 16 16 16 16 16 16 16 16 16 16 16 16 16 16 16 16 16 16 16
21 17 16 16 17 18 18 18 18 18 17 18 17 16 16 17 17 17 17 17 17 17 17 17 17 17 17 17 16 16 16 16 16 16 16 16 16 16 16 16 16 16 16 16 16 16 16 16 16
19 16 16 17 17 18 18 18 18 17 17 18 18 16 16 17 17 17 17 17 17 17 17 17 17 17 17 16 16 16 16 16 16 16 16 16 16 16 16 16 16 16 16 16 16 16 16 16 16
21 16 16 16 17 18 18 19 18 18 18 18 18 17 17 17 17 17 17 16 16 16 17 17 16 16 16 16 16 16 16 16 16 16 16 16 16 16 16 16 16 16 16 16 16 16 16 16 15
21 16 16 17 17 18 18 18 18 18 18 18 18 18 17 17 17 17 17 17 16 16 16 16 16 16 16 16 16 16 16 16 16 16 16 16 16 16 16 15 15 16 16 16 16 16 16 15 15
19 16 18 18 18 18 18 18 18 18 17 17 17 18 17 17 17 17 17 17 17 16 16 16 16 16 16 16 16 16 16 16 16 16 16 16 16 16 15 15 15 15 15 15 15 15 15 15 15
18 17 18 18 19 19 18 18 18 18 17 17 18 18 17 17 17 17 17 17 17 16 16 16 16 16 16 16 16 16 16 16 15 15 15 15 15 15 15 15 15 15 15 15 15 15 15 15 15
18 18 18 19 19 19 18 18 18 18 18 19 19 18 17 17 17 17 17 17 16 16 16 16 16 16 16 16 16 16 16 16 15 15 15 15 15 15 15 15 15 15 15 15 15 15 15 15 15
18 18 19 19 19 19 18 18 18 17 18 18 18 18 17 17 17 17 17 17 17 16 16 16 16 16 16 16 16 16 16 15 15 15 15 15 15 15 15 15 15 15 15 15 15 15 15 15 15
19 18 19 19 19 19 18 17 17 17 18 18 18 17 17 17 17 17 17 17 17 16 16 16 16 16 16 16 16 15 15 15 15 15 15 15 15 15 15 15 15 15 15 15 14 14 14 14 14
19 18 18 18 19 18 18 17 17 17 18 18 17 17 17 17 17 17 17 17 17 16 16 16 16 16 16 16 15 15 15 15 15 15 15 15 14 14 15 15 14 14 14 14 14 14 14 14 14
18 17 17 18 18 18 18 16 17 17 17 17 17 17 17 17 17 17 17 17 17 16 16 16 16 16 16 15 15 15 15 15 15 15 14 14 14 14 14 14 14 14 14 14 14 14 14 14 14
16 16 17 17 17 17 17 16 16 17 17 16 16 17 17 17 17 17 17 17 16 16 16 16 16 16 15 15 15 15 15 15 14 14 14 14 14 14 14 14 14 14 14 14 14 14 14 14 13
16 16 17 16 17 17 16 16 16 16 16 16 16 16 16 17 17 17 17 16 16 16 16 16 16 15 15 15 15 15 15 14 14 14 14 14 14 14 14 14 14 14 14 14 14 13 13 13 13
17 16 16 17 17 16 16 15 15 16 15 15 15 16 16 17 17 17 17 16 16 16 16 16 16 15 15 15 15 15 14 14 14 14 14 14 14 14 14 14 13 13 13 13 13 13 13 13 13
17 16 16 17 17 16 15 15 15 15 15 15 15 16 16 16 16 17 16 16 16 16 16 16 15 15 15 15 15 15 14 14 14 14 14 14 14 14 13 13 13 13 13 13 13 13 13 13 13
17 16 16 16 16 16 16 15 15 15 15 15 15 16 16 16 17 17 16 16 16 16 16 16 15 15 15 15 15 14 14 14 14 14 14 13 13 13 13 13 13 13 13 13 13 13 13 12 12
16 17 17 17 16 14 16 14 15 14 14 14 14 15 15 16 16 16 16 16 16 16 16 16 15 15 15 15 15 14 14 14 14 13 13 13 13 13 13 13 12 12 12 12 12 12 12 12 12
17 17 17 16 15 14 14 14 14 13 14 14 14 14 15 16 16 16 16 16 16 16 16 16 15 15 15 15 14 14 14 14 13 13 13 13 13 13 12 12 12 12 12 12 12 12 12 12 12
17 16 15 13 14 14 14 14 14 13 14 14 14 14 15 15 16 16 16 16 16 16 16 15 15 15 15 14 14 14 14 14 13 13 13 13 13 12 12 12 12 12 12 12 12 12 11 11 11
16 15 14 14 13 13 14 14 14 14 14 14 14 14 15 15 15 16 16 16 16 15 15 15 15 15 15 14 14 14 14 13 13 13 13 13 12 12 12 12 12 12 12 12 11 11 11 11 11
16 15 14 15 14 13 14 13 14 14 14 14 14 14 15 15 15 15 15 16 15 15 15 15 15 15 14 14 14 14 13 13 13 13 12 12 12 12 12 12 12 11 11 11 11 11 11 11 10
16 14 14 13 14 13 13 13 13 14 13 13 13 14 14 15 15 15 15 15 15 15 15 15 15 15 14 14 14 13 13 13 13 12 12 12 12 12 12 11 11 11 11 11 11 11 10 10 10
16 14 13 13 14 13 14 14 13 14 14 13 12 13 14 14 15 15 15 15 15 15 15 14 14 14 14 14 14 13 13 13 12 12 12 12 12 12 11 11 11 11 11 11 11 10 10 10 10
15 14 13 12 12 13 13 14 14 13 13 12 12 13 13 14 14 14 15 14 15 14 14 14 14 14 14 13 13 13 13 13 12 12 12 12 11 11 11 11 11 11 10 10 10 10 10 10 10
15 14 13 13 13 11 12 13 14 12 13 12 13 13 13 14 14 14 14 14 14 14 14 14 13 13 13 13 13 13 12 12 12 12 12 11 11 11 11 11 11 10 10 10 10 10 9 9 9
Wind_Speed
2 4 4 4 6 6 3 2 1 2 3 2 4 4 5 3 2 3 1 1 1 2 4 6 8 9 10 11 11 12 12 12 12 12 12 11 11 11 11 11 12 12 12 12 11 11 11 11 11
2 3 5 5 5 4 2 2 2 2 2 2 4 4 4 3 1 3 1 1 2 2 4 6 9 9 10 10 11 11 12 12 12 12 12 12 11 11 11 12 12 12 12 12 12 12 12 11 11
3 5 5 5 4 4 2 0 2 2 2 2 3 4 3 2 2 2 1 2 3 4 5 6 9 9 10 10 11 11 12 12 12 12 13 12 12 12 12 12 12 12 12 12 12 12 11 11 11
4 5 5 6 5 1 2 2 2 2 4 5 3 4 3 3 2 3 4 4 4 4 6 6 8 8 9 10 11 12 11 12 12 12 13 13 13 13 13 13 12 13 13 12 12 11 11 11 11
4 5 6 4 3 1 1 1 1 3 2 3 4 4 3 4 4 6 5 4 4 4 5 6 8 9 9 10 11 11 11 12 12 12 12 13 13 13 13 13 13 13 12 13 13 12 12 11 10
5 5 5 3 2 2 1 1 3 4 3 3 3 3 2 2 4 4 5 4 4 3 5 6 8 9 9 10 10 11 11 11 11 12 13 13 13 13 14 14 14 13 13 13 12 12 12 11 11
5 5 4 4 2 1 1 1 3 4 3 2 3 4 1 1 3 5 5 4 4 5 5 7 8 8 8 9 10 10 11 11 11 12 12 13 13 13 13 13 13 13 13 13 13 13 13 13 12
5 5 4 2 3 1 1 2 2 3 3 2 3 5 3 2 4 6 5 5 5 5 5 6 7 8 7 7 8 10 11 11 11 11 12 12 12 12 12 12 12 12 12 12 12 12 12 12 12
4 5 3 4 5 3 2 3 2 3 5 3 2 2 3 6 7 7 5 4 4 4 4 4 5 6 6 6 8 9 10 10 10 10 11 11 10 10 10 11 12 13 13 13 12 12 12 11 11
5 4 5 4 5 5 3 3 3 4 4 2 3 3 6 7 7 6 4 3 2 2 2 3 4 5 6 6 7 8 9 10 10 10 10 10 9 9 9 11 12 13 13 12 13 13 12 11 10
4 4 3 2 3 4 4 2 2 5 2 3 5 6 7 6 6 5 4 3 2 1 1 2 3 4 6 5 6 7 7 8 9 10 10 9 9 9 9 9 10 11 11 10 11 11 10 9 8
4 2 3 3 4 4 4 3 3 2 3 3 5 8 7 7 6 5 4 2 2 2 1 2 3 4 5 6 5 6 6 6 6 8 9 8 6 6 6 6 8 8 8 8 8 7 8 9 9
4 3 3 4 6 5 5 4 3 0 1 4 6 7 7 6 5 3 3 3 2 2 1 2 2 3 4 5 4 5 5 5 6 7 7 7 5 4 5 5 7 7 8 6 6 6 6 6 7
4 5 4 4 5 3 5 3 2 1 3 6 6 5 5 5 4 3 3 3 3 2 2 2 2 3 4 4 3 4 4 5 6 6 7 7 6 5 4 4 5 6 6 6 6 5 5 4 5
5 6 5 3 2 2 4 3 1 1 5 5 4 4 3 3 3 4 4 4 3 3 2 2 3 4 4 4 3 4 5 6 5 5 7 7 6 6 5 4 4 5 6 6 6 6 5 5 5
4 5 2 2 2 2 4 2 3 2 5 4 3 3 3 3 3 3 3 3 3 3 3 2 3 4 4 4 4 4 5 6 5 5 6 6 7 6 5 4 4 5 6 5 4 4 4 5 4
5 3 1 2 1 2 3 3 3 2 5 4 3 3 3 2 2 2 2 3 3 4 4 3 3 4 3 4 4 5 5 5 5 6 6 6 6 6 6 4 4 5 5 4 4 4 3 3 4
3 2 1 2 1 3 2 4 3 2 4 4 4 3 3 4 4 3 3 3 4 4 4 4 4 3 3 4 4 4 4 4 5 5 5 5 5 6 6 5 5 5 4 4 4 3 4 3 2
5 4 2 3 2 3 4 5 5 3 2 4 4 4 5 5 3 2 3 3 4 4 4 3 4 3 3 2 2 2 2 2 2 4 5 5 5 5 5 4 4 4 4 3 3 3 4 4 3
4 3 1 1 0 2 2 5 5 3 4 5 6 6 6 4 2 3 3 3 4 4 4 4 4 4 3 2 2 2 2 1 1 3 4 5 5 5 4 4 3 3 3 4 4 3 2 2 3
2 5 4 2 2 2 1 5 4 3 2 2 3 4 4 6 6 5 5 5 5 5 5 5 4 4 3 3 3 3 3 3 2 2 2 3 3 4 4 3 3 3 2 2 2 2 3 1 2
3 4 4 3 2 2 1 3 6 4 4 3 4 4 4 5 5 5 6 6 6 6 5 4 4 4 3 4 4 5 3 2 1 0 1 2 3 3 3 3 3 2 2 1 1 2 1 2 1
4 2 3 2 3 1 1 2 7 3 4 6 6 5 5 5 6 6 7 7 6 5 5 4 4 4 3 4 5 5 3 1 0 1 1 2 2 3 2 2 2 2 1 1 1 1 2 1 1
4 6 6 5 4 1 3 3 6 3 4 5 5 5 5 5 5 4 5 4 4 4 4 5 5 4 3 4 4 5 4 3 2 1 0 1 1 2 3 2 2 1 1 0 0 1 1 1 1
5 5 3 3 3 4 2 2 6 5 4 4 5 5 4 3 4 3 4 5 5 5 5 5 5 4 4 4 4 4 4 4 4 2 1 0 1 1 2 2 1 1 1 1 1 1 1 1 1
4 7 6 4 4 4 2 4 6 5 4 3 2 2 1 1 2 3 5 5 6 6 6 6 6 5 5 5 4 3 3 3 2 2 2 1 1 2 1 1 1 1 1 1 1 1 0 1 0
5 3 5 5 2 2 4 5 7 3 3 2 1 1 1 1 2 3 3 4 5 5 6 7 7 5 5 4 4 4 3 3 2 2 1 1 1 0 0 0 0 1 1 1 1 1 0 0 0
5 7 5 4 3 3 5 4 4 6 5 3 2 2 2 1 1 1 2 3 4 4 4 5 5 5 4 4 4 3 3 3 2 2 2 1 1 0 1 0 0 1 1 1 1 1 0 1 0
3 4 4 4 4 4 3 6 4 5 5 5 5 4 2 1 1 1 2 2 2 3 4 4 4 4 4 4 3 3 2 2 2 2 1 1 1 1 1 0 0 0 1 1 1 1 1 0 1
4 6 7 4 4 4 4 7 5 4 4 4 4 3 2 1 1 1 0 1 2 3 3 4 5 5 4 4 4 3 3 3 2 1 1 1 1 0 1 1 0 0 0 0 0 1 1 0 1
Wind_Direction
22 69 70 55 55 53 52 5 20 37 41 30 44 72 90 86 106 135 273 32 54 18 13 45 56 59 60 62 67 69 69 69 70 68 64 62 61 63 66 68 71 73 74 77 79 78 79 78 77
65 73 54 57 78 72 11 345 52 61 138 128 55 63 68 63 69 110 59 64 71 44 33 54 62 63 63 65 69 69 70 70 68 66 62 60 60 61 63 66 71 74 75 75 76 77 78 77 75
78 56 73 66 86 131 150 187 120 71 66 65 56 46 61 57 79 135 160 116 72 48 44 58 67 66 67 67 68 69 70 69 66 64 62 60 61 61 60 65 68 71 73 74 75 75 75 73 73
78 48 57 70 81 145 165 177 146 95 46 40 69 52 41 32 115 136 122 99 79 51 49 61 67 67 70 68 66 66 67 68 67 64 64 64 64 62 61 62 64 65 67 70 73 74 75 73 73
61 73 65 63 53 20 88 146 106 84 56 42 62 69 36 14 83 104 100 91 87 59 49 60 65 68 68 67 67 67 66 67 68 65 64 63 62 62 62 60 63 64 65 68 69 70 71 70 74
57 67 84 97 64 27 33 70 95 82 84 70 79 86 50 34 85 97 92 86 80 74 54 58 63 66 66 66 67 67 66 67 66 65 64 61 61 62 62 63 64 65 66 70 69 69 68 66 67
97 88 112 128 115 61 92 99 118 116 100 112 121 101 76 41 98 102 90 82 69 61 55 44 49 54 61 65 67 66 66 66 66 66 65 61 58 59 60 61 62 66 66 66 66 66 65 64 65
113 99 94 118 132 162 123 96 85 117 124 106 112 129 171 184 109 95 81 69 66 53 45 40 41 46 47 54 68 68 68 66 63 62 61 59 54 52 55 55 59 62 63 64 65 65 63 63 65
87 83 137 175 161 170 134 102 69 68 94 66 70 129 145 128 106 94 81 62 58 51 34 36 33 34 40 58 66 65 63 59 56 53 54 51 43 44 48 55 59 60 61 62 62 62 62 61 61
81 123 186 188 168 154 136 121 133 91 75 69 63 73 108 117 115 115 118 116 94 57 19 30 28 29 38 58 60 56 56 53 50 45 43 42 42 44 49 53 56 57 57 58 59 60 56 55 53
95 144 154 137 145 131 121 102 109 120 122 189 168 151 135 128 128 134 144 149 161 160 69 51 40 44 51 58 62 54 52 49 46 44 43 46 45 42 42 43 43 44 46 47 49 50 48 51 52
98 94 129 134 121 112 123 119 102 125 203 189 165 149 143 148 156 165 169 171 152 136 124 80 59 54 55 62 62 60 54 46 39 39 46 51 49 43 41 45 42 42 42 43 46 49 46 49 49
95 100 90 97 95 103 94 94 120 56 116 112 124 131 152 163 170 174 170 158 141 141 137 117 86 72 63 64 59 61 54 50 44 43 46 53 57 50 47 46 45 44 44 45 44 49 47 43 45
119 103 88 79 87 85 96 65 83 301 110 118 137 157 169 172 169 158 154 159 158 158 149 120 103 86 79 72 67 64 59 56 54 48 47 51 57 58 57 50 46 40 40 45 50 52 51 44 46
100 90 58 41 69 97 94 35 265 182 115 129 159 174 168 177 177 183 180 174 167 157 139 128 124 92 85 78 72 71 65 65 57 50 51 54 57 61 63 55 44 35 40 50 57 52 53 46 44
63 69 63 342 62 86 103 261 283 137 129 148 180 186 184 192 205 204 181 156 139 129 124 127 123 104 95 83 75 72 70 69 60 59 56 54 57 62 65 57 44 36 47 53 57 50 49 41 36
47 95 137 318 2 105 130 235 277 140 145 171 196 204 207 207 216 205 170 153 140 138 137 133 116 112 108 91 79 73 70 64 60 61 60 56 56 64 70 64 49 46 52 47 54 53 56 51 35
174 158 178 235 255 126 164 248 280 181 172 198 209 213 209 211 220 196 171 159 142 130 125 128 116 109 106 92 77 66 59 50 52 54 58 60 59 62 69 68 54 54 57 46 46 58 46 48 33
147 148 190 242 228 155 203 254 268 235 201 222 223 220 220 226 221 175 160 141 128 121 121 130 128 124 120 113 109 95 76 47 41 43 52 58 61 61 68 68 60 57 59 57 53 61 55 35 25
133 141 195 303 83 160 221 274 280 239 223 223 220 223 224 222 206 187 167 155 157 154 153 151 155 150 148 145 136 130 126 91 69 38 41 48 59 61 69 71 69 64 66 57 55 63 67 40 32
167 177 190 200 22 44 48 319 304 297 273 262 251 231 221 208 204 197 185 183 175 172 174 174 173 163 154 129 106 90 68 54 41 27 20 18 42 57 61 69 74 72 80 75 57 74 86 68 14
212 213 178 170 124 289 75 286 293 293 298 280 269 251 231 222 205 198 192 190 190 189 177 169 161 154 150 141 136 133 131 136 208 232 329 10 27 39 52 66 74 80 79 82 67 77 66 100 46
199 149 135 135 135 20 1 205 287 324 293 282 270 255 241 223 205 202 200 197 192 179 171 167 159 154 150 147 152 144 133 144 121 69 50 19 14 21 32 58 75 74 79 90 78 79 74 88 99
133 80 63 54 75 310 252 194 280 261 256 282 278 265 245 225 209 204 194 177 176 168 165 162 162 165 160 154 153 152 151 148 131 99 57 346 347 0 18 43 61 54 51 38 118 125 113 99 93
101 101 44 2 6 258 267 209 253 261 256 251 263 265 254 221 198 187 176 175 176 175 176 168 170 174 169 163 163 166 166 167 175 181 192 239 325 326 325 12 34 29 349 356 82 113 124 122 120
159 141 158 196 226 276 311 239 258 274 289 278 266 268 272 215 198 197 191 186 186 183 178 174 173 173 174 173 176 175 172 172 181 185 182 199 232 252 299 356 12 17 3 15 68 94 154 108 142
140 160 161 140 163 272 280 286 302 294 317 335 348 19 283 249 216 211 199 193 193 188 187 184 176 169 175 175 171 167 169 170 178 186 176 193 238 256 49 85 35 5 15 42 80 77 288 140 206
138 143 106 123 164 259 285 274 262 278 273 279 271 266 283 341 331 238 212 207 198 189 181 175 174 172 172 167 168 168 172 173 170 162 175 186 193 98 81 25 300 334 7 36 83 64 356 85 303
111 114 117 124 155 170 259 271 244 241 242 238 248 249 252 250 261 262 246 214 178 158 158 162 167 162 161 164 163 153 156 151 143 147 184 186 171 162 156 164 132 338 13 19 61 9 9 27 322
164 170 152 163 212 186 200 264 287 265 256 233 246 255 247 225 225 213 177 156 151 156 161 170 171 173 175 170 159 155 152 141 134 143 181 165 151 147 167 163 138 210 209 260 165 274 323 272 292
Height
1495 1495 1496 1497 1502 1516 1522 1519 1515 1514 1515 1515 1514 1513 1515 1518 1520 1526 1522 1519 1519 1519 1519 1518 1518 1517 1516 1516 1515 1515 1514 1514 1514 1513 1513 1512 1512 1512 1511 1511 1510 1510 1510 1510 1510 1511 1511 1511 1512
1496 1497 1498 1499 1512 1528 1526 1518 1516 1515 1515 1515 1515 1515 1516 1517 1518 1519 1519 1520 1520 1520 1520 1520 1519 1519 1518 1517 1517 1516 1516 1516 1516 1515 1514 1514 1513 1513 1512 1512 1512 1511 1511 1511 1511 1512 1512 1512 1513
1497 1498 1500 1505 1518 1526 1523 1518 1516 1516 1516 1516 1516 1517 1518 1518 1518 1519 1520 1521 1522 1522 1522 1521 1521 1520 1520 1519 1518 1518 1518 1517 1517 1517 1516 1515 1515 1514 1514 1513 1513 1512 1512 1512 1512 1513 1513 1513 1514
1498 1500 1503 1513 1521 1520 1518 1517 1516 1516 1516 1517 1517 1519 1520 1521 1521 1521 1522 1523 1523 1523 1523 1523 1522 1521 1521 1521 1520 1520 1519 1519 1519 1518 1518 1517 1516 1516 1515 1515 1514 1513 1513 1513 1513 1514 1514 1514 1514
1499 1501 1511 1521 1521 1519 1517 1517 1517 1517 1518 1519 1519 1521 1523 1524 1523 1523 1524 1524 1525 1524 1524 1524 1523 1523 1522 1522 1522 1521 1521 1521 1520 1520 1519 1519 1518 1517 1517 1516 1515 1514 1514 1514 1514 1515 1515 1515 1515
1501 1504 1521 1527 1523 1519 1518 1518 1518 1519 1520 1520 1521 1522 1525 1525 1525 1525 1526 1526 1526 1526 1525 1525 1525 1524 1524 1523 1523 1523 1523 1522 1522 1522 1521 1520 1520 1519 1518 1518 1517 1516 1515 1515 1516 1517 1517 1517 1517
1503 1511 1521 1523 1524 1521 1519 1519 1519 1520 1520 1522 1522 1523 1525 1526 1527 1527 1527 1528 1527 1527 1527 1526 1526 1525 1525 1524 1524 1524 1524 1524 1523 1523 1523 1522 1522 1521 1521 1520 1519 1519 1518 1518 1518 1518 1518 1518 1518
1503 1511 1521 1523 1524 1522 1519 1519 1520 1520 1522 1523 1523 1524 1525 1527 1528 1528 1529 1529 1529 1528 1528 1528 1527 1526 1525 1525 1525 1525 1525 1525 1525 1525 1524 1524 1523 1523 1523 1522 1521 1521 1521 1520 1520 1520 1520 1519 1519
1504 1515 1524 1522 1522 1520 1519 1519 1521 1522 1522 1523 1524 1525 1526 1527 1528 1529 1529 1530 1530 1529 1529 1529 1528 1526 1525 1524 1525 1526 1526 1526 1526 1526 1526 1526 1525 1525 1524 1524 1523 1523 1522 1522 1522 1522 1521 1521 1521
1505 1518 1518 1516 1516 1517 1518 1520 1521 1522 1523 1524 1525 1526 1527 1528 1529 1529 1530 1530 1530 1530 1530 1530 1529 1526 1523 1522 1525 1526 1528 1528 1528 1528 1527 1527 1527 1526 1526 1525 1525 1524 1524 1524 1524 1523 1523 1523 1523
1507 1514 1513 1514 1515 1516 1518 1520 1521 1522 1525 1524 1524 1526 1527 1528 1529 1530 1531 1531 1531 1531 1531 1531 1530 1528 1526 1525 1526 1528 1529 1529 1529 1529 1529 1529 1528 1528 1527 1527 1526 1526 1526 1525 1525 1525 1524 1524 1524
1509 1512 1513 1514 1516 1517 1519 1520 1522 1523 1524 1524 1525 1526 1527 1528 1529 1531 1531 1532 1532 1533 1533 1532 1532 1530 1529 1529 1529 1530 1531 1531 1531 1531 1531 1530 1530 1529 1529 1528 1528 1527 1527 1526 1526 1526 1525 1525 1525
1511 1513 1514 1515 1517 1518 1520 1521 1523 1524 1524 1525 1526 1527 1528 1529 1530 1531 1532 1533 1533 1533 1534 1533 1533 1533 1532 1532 1532 1532 1532 1532 1532 1532 1532 1532 1531 1531 1530 1530 1529 1528 1528 1527 1527 1527 1526 1526 1526
1512 1514 1516 1517 1518 1520 1521 1523 1524 1524 1525 1526 1527 1528 1529 1530 1530 1531 1532 1533 1534 1534 1534 1535 1535 1535 1535 1534 1534 1534 1534 1534 1534 1534 1533 1533 1533 1532 1532 1531 1530 1530 1529 1529 1528 1528 1527 1527 1526
1513 1516 1519 1519 1519 1521 1522 1526 1525 1525 1525 1526 1527 1528 1529 1530 1531 1531 1532 1533 1534 1535 1535 1535 1536 1536 1536 1536 1536 1536 1536 1535 1535 1535 1535 1534 1534 1533 1533 1532 1531 1531 1530 1530 1529 1529 1528 1528 1527
1516 1521 1527 1523 1521 1522 1527 1533 1525 1525 1525 1526 1527 1528 1529 1530 1531 1532 1533 1533 1534 1535 1536 1536 1536 1537 1537 1537 1537 1537 1537 1536 1536 1536 1535 1535 1535 1534 1533 1533 1532 1532 1531 1530 1529 1529 1529 1528 1528
1524 1530 1530 1527 1523 1523 1527 1531 1525 1525 1525 1526 1526 1527 1528 1529 1530 1531 1532 1533 1534 1535 1536 1536 1537 1537 1537 1538 1538 1538 1538 1537 1537 1537 1536 1536 1535 1534 1534 1533 1533 1532 1531 1530 1530 1529 1529 1528 1528
1530 1531 1531 1530 1525 1525 1528 1529 1525 1525 1525 1525 1525 1526 1527 1528 1529 1531 1532 1533 1534 1535 1536 1537 1537 1537 1538 1538 1538 1538 1538 1538 1538 1537 1537 1536 1535 1535 1534 1533 1533 1532 1532 1531 1530 1529 1529 1529 1528
1523 1528 1531 1528 1524 1526 1529 1528 1525 1524 1524 1524 1524 1525 1525 1527 1529 1530 1531 1532 1533 1534 1535 1536 1537 1537 1538 1538 1538 1538 1538 1538 1538 1537 1537 1536 1536 1535 1534 1534 1533 1533 1532 1531 1530 1530 1529 1528 1528
1522 1528 1530 1527 1524 1526 1529 1528 1524 1522 1522 1522 1522 1523 1524 1525 1527 1528 1529 1531 1532 1533 1534 1535 1536 1537 1537 1538 1538 1538 1538 1538 1538 1538 1537 1537 1536 1535 1535 1534 1533 1533 1532 1531 1531 1530 1529 1528 1528
1524 1527 1528 1528 1526 1526 1529 1530 1525 1521 1521 1520 1521 1521 1522 1523 1524 1526 1528 1529 1530 1531 1533 1534 1535 1536 1536 1537 1537 1537 1538 1538 1538 1537 1537 1536 1536 1535 1534 1534 1533 1533 1532 1531 1530 1530 1529 1529 1528
1526 1521 1522 1525 1532 1538 1534 1543 1528 1524 1521 1519 1519 1519 1519 1520 1522 1524 1525 1527 1528 1530 1531 1533 1534 1535 1535 1536 1536 1536 1536 1536 1536 1537 1536 1536 1536 1535 1534 1533 1533 1532 1532 1531 1530 1530 1529 1529 1528
1520 1518 1522 1526 1532 1539 1538 1542 1534 1525 1523 1519 1517 1516 1516 1517 1519 1521 1523 1524 1526 1528 1530 1531 1532 1534 1534 1535 1535 1535 1536 1536 1536 1536 1536 1536 1535 1534 1533 1533 1532 1532 1531 1530 1530 1529 1529 1529 1528
1517 1522 1527 1533 1537 1546 1540 1543 1538 1528 1522 1517 1515 1514 1514 1515 1516 1518 1520 1522 1524 1526 1528 1529 1531 1532 1533 1533 1534 1534 1535 1535 1535 1535 1535 1535 1534 1534 1533 1532 1532 1531 1530 1530 1529 1529 1528 1528 1528
1519 1530 1544 1546 1552 1549 1538 1539 1534 1520 1517 1515 1513 1512 1512 1513 1514 1515 1517 1519 1521 1523 1525 1527 1528 1529 1531 1532 1532 1533 1534 1534 1534 1534 1534 1534 1533 1532 1532 1531 1531 1530 1530 1529 1528 1528 1527 1527 1527
1521 1527 1543 1551 1553 1548 1539 1540 1527 1516 1514 1513 1512 1511 1511 1511 1512 1513 1515 1517 1519 1521 1523 1524 1526 1527 1528 1530 1530 1532 1532 1533 1533 1533 1533 1533 1532 1531 1531 1530 1529 1529 1528 1528 1527 1527 1526 1526 1526
1521 1527 1528 1540 1543 1548 1544 1535 1524 1515 1513 1512 1511 1510 1510 1510 1511 1512 1513 1515 1517 1519 1520 1522 1523 1525 1526 1527 1529 1530 1531 1531 1531 1532 1532 1531 1531 1530 1530 1529 1528 1528 1527 1527 1526 1525 1525 1524 1524
1515 1522 1533 1540 1548 1551 1542 1537 1531 1518 1514 1512 1511 1510 1510 1510 1510 1511 1512 1513 1515 1517 1518 1520 1521 1523 1525 1526 1527 1528 1529 1529 1530 1530 1530 1530 1529 1529 1528 1527 1527 1526 1525 1525 1525 1524 1524 1523 1522
1520 1524 1529 1538 1541 1549 1548 1538 1517 1514 1511 1511 1510 1509 1509 1509 1509 1509 1510 1512 1513 1515 1516 1518 1519 1521 1523 1524 1525 1526 1527 1528 1528 1528 1528 1528 1527 1527 1527 1526 1525 1524 1524 1523 1523 1522 1522 1521 1521
1514 1518 1527 1536 1539 1543 1545 1536 1512 1511 1509 1508 1508 1508 1509 1508 1508 1509 1509 1510 1512 1513 1514 1515 1517 1519 1520 1522 1523 1524 1525 1526 1526 1526 1526 1526 1526 1525 1525 1524 1524 1523 1522 1522 1521 1521 1520 1520 1519